WetterOnline ( https://www.wetteronline.de )

Wetter aktuell Regensburg

Aktuelles Wetter: Regensburg/Oberhub (371m)

6-stündlich | Neueste Meldungen
Ortszeit Temperatur Wetter
So, 04.12. 1:00 1.0° C bedeckt
Sa, 03.12. 19:00 0.9° C bedeckt
Sa, 03.12. 13:00 1.3° C bedeckt
Sa, 03.12. 7:00 0.9° C bedeckt
Sa, 03.12. 1:00 0.7° C bedeckt
Fr, 02.12. 19:00 0.2° C Schneefall
Fr, 02.12. 13:00 1.3° C leichter Schneefall
Fr, 02.12. 7:00 2.0° C bedeckt
Ortszeit Temperatur Wetter
So, 04.12. 2:30 1.2° C bedeckt
So, 04.12. 2:20 1.2° C bedeckt
So, 04.12. 2:10 1.2° C bedeckt
So, 04.12. 2:00 1.2° C bedeckt
So, 04.12. 1:50 1.2° C bedeckt
So, 04.12. 1:40 1.1° C bedeckt
So, 04.12. 1:30 1.0° C bedeckt
So, 04.12. 1:00 1.0° C bedeckt
So, 04.12. 0:30 1.1° C bedeckt
So, 04.12. 0:00 1.2° C bedeckt
Sa, 03.12. 23:30 1.1° C bedeckt
Ortszeit Relative Feuchte Sichtweite
So, 04.12. 1:00 92% 20 km
Sa, 03.12. 19:00 90% 18 km
Sa, 03.12. 13:00 88% 17 km
Sa, 03.12. 7:00 96% 6 km
Sa, 03.12. 1:00 96% 4.3 km
Fr, 02.12. 19:00 97% 1.8 km
Fr, 02.12. 13:00 94% 3.5 km
Fr, 02.12. 7:00 88% 6 km
Ortszeit Relative Feuchte Sichtweite
So, 04.12. 2:30 93% 18 km
So, 04.12. 2:20 93% -
So, 04.12. 2:10 93% -
So, 04.12. 2:00 93% 18 km
So, 04.12. 1:50 93% -
So, 04.12. 1:40 92% -
So, 04.12. 1:30 93% 20 km
So, 04.12. 1:00 92% 20 km
So, 04.12. 0:30 92% 21 km
So, 04.12. 0:00 91% 21 km
Sa, 03.12. 23:30 92% 20 km
Ortszeit Niederschlagsmenge Niederschlagsart
So, 04.12. 1:00 0.0 l/m2 in 6 Std. -
Sa, 03.12. 19:00 0.0 l/m2 in 12 Std. -
Sa, 03.12. 13:00 0.0 l/m2 in 6 Std. -
Sa, 03.12. 7:00 0.7 l/m2 in 12 Std. -
Sa, 03.12. 1:00 0.7 l/m2 in 6 Std. Schnee, Sprühregen
Fr, 02.12. 19:00 4 l/m2 in 12 Std. Schnee, Regen
Fr, 02.12. 13:00 2 l/m2 in 6 Std. Schnee, Regen
Fr, 02.12. 7:00 0.1 l/m2 in 12 Std. -
Ortszeit Niederschlagsmenge Niederschlagsart
So, 04.12. 2:30 0.0 l/m2 in 30 Min -
So, 04.12. 2:20 keine Meldung -
So, 04.12. 2:10 keine Meldung -
So, 04.12. 2:00 0.0 l/m2 in 1 Std. -
So, 04.12. 1:50 keine Meldung -
So, 04.12. 1:40 keine Meldung -
So, 04.12. 1:30 0.0 l/m2 in 30 Min -
So, 04.12. 1:00 0.0 l/m2 in 1 Std. -
So, 04.12. 0:30 0.0 l/m2 in 30 Min -
So, 04.12. 0:00 0.0 l/m2 in 1 Std. -
Sa, 03.12. 23:30 0.0 l/m2 in 30 Min -
Ortszeit Stärke Spitze Richtung
km/h Bft. km/h Grad Sektor
So, 04.12. 1:00 7 2 18 20° N
Sa, 03.12. 19:00 11 2 20 40° NO
Sa, 03.12. 13:00 9 2 15 50° NO
Sa, 03.12. 7:00 4 1 11 50° NO
Sa, 03.12. 1:00 2 1 7 90° O
Fr, 02.12. 19:00 4 1 14 30° NO
Fr, 02.12. 13:00 7 2 18 40° NO
Fr, 02.12. 7:00 7 2 18 30° NO
Ortszeit Stärke Spitze Richtung
km/h Bft. km/h Grad Sektor
So, 04.12. 2:30 11 2 22 40° NO
So, 04.12. 2:20 11 2 - 40° NO
So, 04.12. 2:10 11 2 - 30° NO
So, 04.12. 2:00 9 2 19 30° NO
So, 04.12. 1:50 9 2 - 30° NO
So, 04.12. 1:40 9 2 - 30° NO
So, 04.12. 1:30 7 2 18 30° NO
So, 04.12. 1:00 7 2 14 20° N
So, 04.12. 0:30 7 2 14 30° NO
So, 04.12. 0:00 9 2 17 30° NO
Sa, 03.12. 23:30 6 1 17 40° NO
Ortszeit Untergrenze Bedeckung Gattung
total tief tief mittel hoch
So, 04.12. 1:00 180 m 8/8 8/8 - - -
Sa, 03.12. 19:00 270 m 8/8 8/8 - - -
Sa, 03.12. 13:00 240 m 8/8 8/8 - - -
Sa, 03.12. 7:00 210 m 8/8 8/8 - - -
Sa, 03.12. 1:00 180 m 8/8 8/8 - - -
Fr, 02.12. 19:00 330 m 7/8 7/8 - - -
Fr, 02.12. 13:00 210 m 8/8 8/8 - - -
Fr, 02.12. 7:00 420 m 8/8 8/8 - - -
Ortszeit Bedeckungsgrad in Achtel und Wolkenuntergrenze
So, 04.12. 2:30 8(150m)
So, 04.12. 2:20 8(150m)
So, 04.12. 2:10 8
So, 04.12. 2:00 8(180m)
So, 04.12. 1:50 8(180m)
So, 04.12. 1:40 8
So, 04.12. 1:30 8(180m)
So, 04.12. 1:00 8(180m)
So, 04.12. 0:30 8(180m)
So, 04.12. 0:00 8(180m)
Sa, 03.12. 23:30 8(180m)
Ortszeit Luftdruck NN (hPa) Tendenz (hPa in 3 Std.)
So, 04.12. 1:00 1017 - 1,1
Sa, 03.12. 19:00 1018 - 0,4
Sa, 03.12. 13:00 1020 - 0,8
Sa, 03.12. 7:00 1021 - 0,1
Sa, 03.12. 1:00 1021 + 0,1
Fr, 02.12. 19:00 1021 + 0,7
Fr, 02.12. 13:00 1020 - 0,9
Fr, 02.12. 7:00 1021 - 0,6
Ortszeit Luftdruck NN (hPa) Tendenz (hPa in 3 Std.)
So, 04.12. 2:30 1016 - 1,0
So, 04.12. 2:20 1016 keine Meldung
So, 04.12. 2:10 1016 keine Meldung
So, 04.12. 2:00 1016 - 0,8
So, 04.12. 1:50 1016 keine Meldung
So, 04.12. 1:40 1016 keine Meldung
So, 04.12. 1:30 1016 - 1,1
So, 04.12. 1:00 1017 - 1,1
So, 04.12. 0:30 1017 - 1,0
So, 04.12. 0:00 1017 - 1,1
Sa, 03.12. 23:30 1017 - 0,9
Ortszeit Schneehöhe (cm)
So, 04.12. 1:00 0
Sa, 03.12. 19:00 0
Sa, 03.12. 13:00 0
Sa, 03.12. 7:00 0
Sa, 03.12. 1:00 0
Fr, 02.12. 19:00 0
Fr, 02.12. 13:00 0
Fr, 02.12. 7:00 0
Ortszeit Schneehöhe (cm)
So, 04.12. 2:30 0
So, 04.12. 2:20 0
So, 04.12. 2:10 0
So, 04.12. 2:00 0
So, 04.12. 1:50 0
So, 04.12. 1:40 0
So, 04.12. 1:30 0
So, 04.12. 1:00 0
So, 04.12. 0:30 0
So, 04.12. 0:00 0
Sa, 03.12. 23:30 0
Link zu dieser Seite / Seite empfehlen

Das Wetter in ...